Location: Castle Hill Houses
(40.8186°N, 73.8497°W)
Time: 21:15:56
(UTC+00:00)

Orbus 7S? - Pass Details

Date: 26 January 2020
Orbit: 335 x 6436 km, 56.9° (Epoch: 11 November)

Event Time Altitude Azimuth Distance (km) Brightness Sun altitude
Exits shadow 10:27:24 40° 322° (NW) 869 3.9 -19.7°
Maximum altitude 10:28:46 83° 46° (NE) 692 3.7 -19.4°
Drops below altitude 10° 10:35:57 10° 135° (SE) 3,447 8.1 -18.1°
Sets 10:40:32 0° 136° (SE) 5,321 9.2 -17.2°
